User: anonymous   Login
Location: Waldport
(44.4270°N, 124.0680°W)
Time: 12:51:56
(UTC-08:00)
Language:

Cosmos 1023 Rocket - Orbit

View from above orbital plane
View from above orbital plane
View from above satellite
View from above satellite

Ground track
Ground track

The orbit data is extracted from the following two-line orbital elements,

1 10962U 78063B   14353.79709733  .00000587  00000-0  19083-3 0  9212
2 10962 074.0816 099.2590 0026179 238.6973 236.7634 14.40792273914759
Epoch (UTC): 19 December 2014 19:07:49
Eccentricity: 0.0026179
inclination: 74.0816°
perigee height: 737 km
apogee height: 774 km
right ascension of ascending node: 99.2590°
argument of perigee: 238.6973°
revolutions per day: 14.40792273
mean anomaly at epoch: 236.7634°
orbit number at epoch: 91475

The dashed part of the orbit path shows where the satellite is in the earth's shadow,  

DLR